Home > Weather > Cumberland County > Past weeks

Flag for Canada Weather for the Past 2 Weeks in Cumberland County, Nova Scotia, Canada

Now
13 °F

Cold.


Feels Like: 7 °F
Forecast: 0 / 15 °F
Wind: 3 mph from Southwest

Location: Kentville

Current Time: Feb 12, 2016 at 10:52:50 PM

Latest Report: Feb 12, 2016 at 10:00 PM


Visibility: N/A

Pressure: 30.03 "Hg

Humidity: 79%

Dew point: 8 °F

Location of Cumberland CountyLocation

Historic Weather in Cumberland County — Graph

°F

Cumberland County Temperature Yesterday

Maximum temperature yesterday: 34 °F (at 2:00 PM)
Minimum temperature yesterday: 18 °F (at 8:00 AM)
Average temperature yesterday: 27 °F

High & Low Weather Summary for the Past Weeks

 TemperatureHumidityPressure
High56 °F (Feb 1, 3:00 PM)100% (Jan 29, 4:00 AM)30.53 "Hg (Jan 29, 4:00 AM)
Low11 °F (Feb 12, 9:00 PM)38% (Feb 2, 4:00 PM)29.14 "Hg (Jan 29, 5:00 PM)
Average30 °F84%29.86 "Hg
* Reported Jan 28 9:00 PM — Feb 12 9:00 PM, Cumberland County, Weather by CustomWeather, © 2016

Note: Actual official high and low records may vary slightly from our data, if they occured in-between our weather recording intervals... More about our weather records

Advertising

Cumberland County Weather History for the Previous 24 Hours

 ConditionsComfort  
Time TempWeatherWind HumidityBarometerVisibility
9:00 PM
Fri, Feb 12
11 °FCold.7 mph80%30.03 "HgN/A
8:00 PM12 °FCold.7 mph83%30.03 "HgN/A
7:00 PM12 °FCold.6 mph85%30.02 "HgN/A
6:00 PM12 °FCold.5 mph83%30.01 "HgN/A
5:00 PM13 °FCold.8 mph76%29.99 "HgN/A
4:00 PM14 °FCold.9 mph66%29.97 "HgN/A
3:00 PM14 °FCold.12 mph67%29.95 "HgN/A
2:00 PM12 °FCold.13 mph74%29.94 "HgN/A
12:00 PM15 °FCold.14 mph58%29.93 "HgN/A
11:00 AM12 °FCold.12 mph71%29.93 "HgN/A
10:00 AM13 °FCold.14 mph80%29.90 "HgN/A
9:00 AM13 °FCold.12 mph78%29.88 "HgN/A
8:00 AM15 °FCold.13 mph77%29.85 "HgN/A
7:00 AM16 °FCold.7 mph77%29.81 "HgN/A
6:00 AM16 °FCold.7 mph76%29.78 "HgN/A
5:00 AM16 °FCold.7 mph74%29.74 "HgN/A
4:00 AM18 °FCold.9 mph68%29.71 "HgN/A
3:00 AM19 °FCold.9 mph73%29.68 "HgN/A
2:00 AM21 °FCold.8 mph72%29.65 "HgN/A
1:00 AM23 °FCold.12 mph69%29.63 "HgN/A
12:00 AM24 °FCold.12 mph75%29.61 "HgN/A
11:00 PM
Thu, Feb 11
25 °FChilly.7 mph79%29.60 "HgN/A
10:00 PM26 °FChilly.8 mph85%29.59 "HgN/A
Weather by CustomWeather, © 2016

See weather overviewHow to use our weather pages